Year,Month,Day,Hour,Minute,Value (Times are PST for windgust in km/hr)
2017,02,15,00,00,1.60
2017,02,15,00,01,1.60
2017,02,15,00,02,6.40
2017,02,15,00,03,6.40
2017,02,15,00,04,1.60
2017,02,15,00,05,3.20
2017,02,15,00,06,3.20
2017,02,15,00,07,1.60
2017,02,15,00,08,6.40
2017,02,15,00,09,3.20
2017,02,15,00,10,1.60
2017,02,15,00,12,1.60
2017,02,15,00,13,1.60
2017,02,15,00,14,1.60
2017,02,15,00,15,1.60
2017,02,15,00,16,8.10
2017,02,15,00,17,6.40
2017,02,15,00,18,6.40
2017,02,15,00,19,3.20
2017,02,15,00,20,3.20
2017,02,15,00,21,8.10
2017,02,15,00,22,8.10
2017,02,15,00,23,3.20
2017,02,15,00,24,3.20
2017,02,15,00,25,6.40
2017,02,15,00,26,6.40
2017,02,15,00,27,3.20
2017,02,15,00,28,3.20
2017,02,15,00,29,1.60
2017,02,15,00,45,3.20
2017,02,15,00,46,6.40
2017,02,15,00,47,3.20
2017,02,15,00,48,3.20
2017,02,15,01,13,6.40
2017,02,15,01,14,6.40
2017,02,15,01,15,6.40
2017,02,15,01,16,3.20
2017,02,15,01,17,3.20
2017,02,15,01,19,3.20
2017,02,15,01,20,3.20
2017,02,15,01,21,3.20
2017,02,15,01,22,1.60
2017,02,15,01,23,1.60
2017,02,15,01,24,1.60
2017,02,15,01,25,1.60
2017,02,15,01,36,3.20
2017,02,15,01,37,4.80
2017,02,15,01,38,4.80
2017,02,15,01,39,3.20
2017,02,15,01,40,6.40
2017,02,15,01,41,6.40
2017,02,15,01,42,1.60
2017,02,15,01,43,3.20
2017,02,15,01,44,3.20
2017,02,15,01,45,3.20
2017,02,15,01,46,3.20
2017,02,15,01,47,3.20
2017,02,15,01,48,1.60
2017,02,15,01,49,3.20
2017,02,15,01,50,3.20
2017,02,15,01,51,3.20
2017,02,15,01,52,3.20
2017,02,15,01,53,3.20
2017,02,15,01,54,3.20
2017,02,15,01,55,1.60
2017,02,15,01,56,3.20
2017,02,15,01,57,3.20
2017,02,15,01,58,1.60
2017,02,15,01,59,1.60
2017,02,15,02,00,1.60
2017,02,15,02,01,3.20
2017,02,15,02,02,3.20
2017,02,15,02,03,3.20
2017,02,15,02,04,1.60
2017,02,15,02,05,1.60
2017,02,15,02,06,1.60
2017,02,15,02,09,1.60
2017,02,15,02,10,1.60
2017,02,15,02,11,1.60
2017,02,15,02,14,1.60
2017,02,15,02,15,3.20
2017,02,15,02,16,3.20
2017,02,15,02,17,3.20
2017,02,15,02,18,3.20
2017,02,15,02,19,1.60
2017,02,15,02,23,1.60
2017,02,15,02,51,3.20
2017,02,15,02,52,3.20
2017,02,15,02,53,3.20
2017,02,15,02,54,3.20
2017,02,15,02,55,3.20
2017,02,15,02,56,3.20
2017,02,15,02,57,1.60
2017,02,15,03,02,3.20
2017,02,15,03,03,1.60
2017,02,15,03,04,3.20
2017,02,15,03,05,6.40
2017,02,15,03,06,6.40
2017,02,15,03,07,1.60
2017,02,15,03,08,3.20
2017,02,15,03,09,4.80
2017,02,15,03,10,4.80
2017,02,15,03,11,4.80
2017,02,15,03,12,3.20
2017,02,15,03,13,3.20
2017,02,15,03,14,4.80
2017,02,15,03,15,4.80
2017,02,15,03,16,6.40
2017,02,15,03,17,3.20
2017,02,15,03,18,1.60
2017,02,15,03,19,1.60
2017,02,15,03,22,1.60
2017,02,15,03,23,3.20
2017,02,15,03,24,3.20
2017,02,15,03,25,3.20
2017,02,15,03,26,1.60
2017,02,15,03,27,6.40
2017,02,15,03,28,3.20
2017,02,15,03,29,4.80
2017,02,15,03,30,6.40
2017,02,15,03,31,6.40
2017,02,15,03,32,3.20
2017,02,15,03,33,3.20
2017,02,15,03,34,3.20
2017,02,15,03,35,1.60
2017,02,15,03,36,3.20
2017,02,15,03,37,3.20
2017,02,15,03,38,1.60
2017,02,15,03,39,3.20
2017,02,15,03,40,1.60
2017,02,15,03,42,1.60
2017,02,15,03,43,6.40
2017,02,15,03,44,3.20
2017,02,15,03,45,3.20
2017,02,15,03,46,3.20
2017,02,15,03,47,3.20
2017,02,15,03,48,1.60
2017,02,15,03,49,6.40
2017,02,15,03,50,6.40
2017,02,15,03,51,4.80
2017,02,15,03,52,3.20
2017,02,15,03,53,1.60
2017,02,15,04,01,3.20
2017,02,15,04,02,6.40
2017,02,15,04,03,8.10
2017,02,15,04,04,6.40
2017,02,15,04,05,4.80
2017,02,15,04,06,4.80
2017,02,15,04,07,3.20
2017,02,15,04,08,3.20
2017,02,15,04,09,1.60
2017,02,15,04,10,6.40
2017,02,15,04,11,6.40
2017,02,15,04,12,6.40
2017,02,15,04,13,8.10
2017,02,15,04,14,6.40
2017,02,15,04,15,6.40
2017,02,15,04,16,3.20
2017,02,15,04,17,6.40
2017,02,15,04,18,1.60
2017,02,15,04,19,11.30
2017,02,15,04,20,12.90
2017,02,15,04,21,11.30
2017,02,15,04,22,6.40
2017,02,15,04,23,8.10
2017,02,15,04,24,3.20
2017,02,15,04,25,3.20
2017,02,15,04,26,4.80
2017,02,15,04,27,6.40
2017,02,15,04,28,9.60
2017,02,15,04,29,16.10
2017,02,15,04,30,16.10
2017,02,15,04,31,11.30
2017,02,15,04,32,20.90
2017,02,15,04,33,11.30
2017,02,15,04,34,20.90
2017,02,15,04,35,11.30
2017,02,15,04,36,9.60
2017,02,15,04,37,9.60
2017,02,15,04,38,9.60
2017,02,15,04,39,12.90
2017,02,15,04,40,11.30
2017,02,15,04,41,11.30
2017,02,15,04,42,12.90
2017,02,15,04,43,8.10
2017,02,15,04,44,17.70
2017,02,15,04,45,9.60
2017,02,15,04,46,16.10
2017,02,15,04,47,6.40
2017,02,15,04,48,6.40
2017,02,15,04,49,4.80
2017,02,15,04,50,8.10
2017,02,15,04,51,9.60
2017,02,15,04,52,4.80
2017,02,15,04,53,8.10
2017,02,15,04,54,6.40
2017,02,15,04,55,11.30
2017,02,15,04,56,12.90
2017,02,15,04,57,3.20
2017,02,15,04,58,6.40
2017,02,15,04,59,9.60
2017,02,15,05,00,11.30
2017,02,15,05,01,8.10
2017,02,15,05,02,1.60
2017,02,15,05,03,6.40
2017,02,15,05,04,17.70
2017,02,15,05,05,8.10
2017,02,15,05,06,3.20
2017,02,15,05,07,11.30
2017,02,15,05,08,9.60
2017,02,15,05,09,11.30
2017,02,15,05,10,11.30
2017,02,15,05,11,8.10
2017,02,15,05,12,12.90
2017,02,15,05,13,12.90
2017,02,15,05,14,9.60
2017,02,15,05,15,20.90
2017,02,15,05,16,12.90
2017,02,15,05,17,14.50
2017,02,15,05,18,11.30
2017,02,15,05,19,11.30
2017,02,15,05,20,12.90
2017,02,15,05,21,14.50
2017,02,15,05,22,11.30
2017,02,15,05,23,9.60
2017,02,15,05,24,9.60
2017,02,15,05,25,9.60
2017,02,15,05,26,12.90
2017,02,15,05,27,11.30
2017,02,15,05,28,17.70
2017,02,15,05,29,11.30
2017,02,15,05,30,24.20
2017,02,15,05,31,14.50
2017,02,15,05,32,20.90
2017,02,15,05,33,19.30
2017,02,15,05,34,14.50
2017,02,15,05,35,14.50
2017,02,15,05,36,12.90
2017,02,15,05,37,24.20
2017,02,15,05,38,12.90
2017,02,15,05,39,17.70
2017,02,15,05,40,17.70
2017,02,15,05,41,12.90
2017,02,15,05,42,17.70
2017,02,15,05,43,24.20
2017,02,15,05,44,19.30
2017,02,15,05,45,22.50
2017,02,15,05,46,22.50
2017,02,15,05,47,14.50
2017,02,15,05,48,37.00
2017,02,15,05,49,16.10
2017,02,15,05,50,16.10
2017,02,15,05,51,17.70
2017,02,15,05,52,9.60
2017,02,15,05,53,11.30
2017,02,15,05,54,12.90
2017,02,15,05,55,19.30
2017,02,15,05,56,14.50
2017,02,15,05,57,20.90
2017,02,15,05,58,11.30
2017,02,15,05,59,9.60
2017,02,15,06,00,17.70
2017,02,15,06,01,22.50
2017,02,15,06,02,14.50
2017,02,15,06,03,11.30
2017,02,15,06,04,9.60
2017,02,15,06,05,11.30
2017,02,15,06,06,14.50
2017,02,15,06,07,22.50
2017,02,15,06,08,14.50
2017,02,15,06,09,6.40
2017,02,15,06,10,8.10
2017,02,15,06,11,11.30
2017,02,15,06,12,19.30
2017,02,15,06,13,14.50
2017,02,15,06,14,14.50
2017,02,15,06,15,9.60
2017,02,15,06,16,16.10
2017,02,15,06,17,29.00
2017,02,15,06,18,16.10
2017,02,15,06,19,12.90
2017,02,15,06,20,11.30
2017,02,15,06,21,9.60
2017,02,15,06,22,9.60
2017,02,15,06,23,9.60
2017,02,15,06,24,9.60
2017,02,15,06,25,9.60
2017,02,15,06,26,9.60
2017,02,15,06,27,11.30
2017,02,15,06,28,14.50
2017,02,15,06,29,9.60
2017,02,15,06,30,8.10
2017,02,15,06,31,11.30
2017,02,15,06,32,16.10
2017,02,15,06,33,14.50
2017,02,15,06,34,14.50
2017,02,15,06,35,27.40
2017,02,15,06,36,14.50
2017,02,15,06,37,8.10
2017,02,15,06,38,9.60
2017,02,15,06,39,14.50
2017,02,15,06,40,9.60
2017,02,15,06,41,9.60
2017,02,15,06,42,6.40
2017,02,15,06,43,12.90
2017,02,15,06,44,17.70
2017,02,15,06,45,11.30
2017,02,15,06,46,8.10
2017,02,15,06,47,1.60
2017,02,15,06,48,4.80
2017,02,15,06,49,1.60
2017,02,15,06,51,3.20
2017,02,15,06,52,3.20
2017,02,15,06,53,3.20
2017,02,15,06,54,4.80
2017,02,15,06,55,6.40
2017,02,15,06,56,6.40
2017,02,15,06,57,3.20
2017,02,15,06,58,3.20
2017,02,15,06,59,3.20
2017,02,15,07,00,6.40
2017,02,15,07,01,6.40
2017,02,15,07,02,6.40
2017,02,15,07,03,6.40
2017,02,15,07,04,8.10
2017,02,15,07,05,6.40
2017,02,15,07,06,1.60
2017,02,15,07,07,6.40
2017,02,15,07,08,3.20
2017,02,15,07,09,1.60
2017,02,15,07,11,6.40
2017,02,15,07,12,3.20
2017,02,15,07,13,3.20
2017,02,15,07,14,4.80
2017,02,15,07,15,6.40
2017,02,15,07,16,3.20
2017,02,15,07,17,8.10
2017,02,15,07,18,6.40
2017,02,15,07,19,4.80
2017,02,15,07,20,6.40
2017,02,15,07,21,6.40
2017,02,15,07,22,1.60
2017,02,15,07,23,8.10
2017,02,15,07,24,8.10
2017,02,15,07,25,6.40
2017,02,15,07,26,8.10
2017,02,15,07,27,9.60
2017,02,15,07,28,8.10
2017,02,15,07,29,8.10
2017,02,15,07,30,8.10
2017,02,15,07,31,19.30
2017,02,15,07,32,14.50
2017,02,15,07,33,4.80
2017,02,15,07,34,6.40
2017,02,15,07,35,8.10
2017,02,15,07,36,9.60
2017,02,15,07,37,6.40
2017,02,15,07,38,8.10
2017,02,15,07,39,6.40
2017,02,15,07,40,6.40
2017,02,15,07,41,6.40
2017,02,15,07,42,3.20
2017,02,15,07,43,6.40
2017,02,15,07,44,3.20
2017,02,15,07,45,1.60
2017,02,15,07,46,1.60
2017,02,15,07,47,3.20
2017,02,15,07,48,3.20
2017,02,15,07,49,6.40
2017,02,15,07,50,6.40
2017,02,15,07,51,6.40
2017,02,15,07,52,3.20
2017,02,15,07,53,6.40
2017,02,15,07,54,6.40
2017,02,15,07,55,6.40
2017,02,15,07,56,6.40
2017,02,15,07,57,6.40
2017,02,15,07,58,1.60
2017,02,15,07,59,1.60
2017,02,15,08,00,3.20
2017,02,15,08,01,3.20
2017,02,15,08,02,1.60
2017,02,15,08,03,3.20
2017,02,15,08,04,3.20
2017,02,15,08,05,6.40
2017,02,15,08,06,4.80
2017,02,15,08,07,8.10
2017,02,15,08,08,3.20
2017,02,15,08,09,4.80
2017,02,15,08,10,6.40
2017,02,15,08,11,4.80
2017,02,15,08,23,6.40
2017,02,15,08,24,8.10
2017,02,15,08,25,9.60
2017,02,15,08,26,4.80
2017,02,15,08,27,4.80
2017,02,15,08,28,6.40
2017,02,15,08,29,4.80
2017,02,15,08,30,1.60
2017,02,15,08,31,4.80
2017,02,15,08,32,6.40
2017,02,15,08,35,4.80
2017,02,15,08,36,4.80
2017,02,15,08,37,6.40
2017,02,15,08,38,4.80
2017,02,15,08,39,1.60
2017,02,15,08,43,4.80
2017,02,15,08,44,3.20
2017,02,15,08,45,4.80
2017,02,15,08,46,1.60
2017,02,15,08,47,1.60
2017,02,15,08,48,3.20
2017,02,15,08,49,3.20
2017,02,15,08,50,4.80
2017,02,15,08,52,1.60
2017,02,15,08,53,1.60
2017,02,15,08,54,3.20
2017,02,15,08,55,3.20
2017,02,15,08,56,6.40
2017,02,15,08,57,4.80
2017,02,15,08,58,4.80
2017,02,15,08,59,8.10
2017,02,15,09,00,8.10
2017,02,15,09,01,8.10
2017,02,15,09,02,6.40
2017,02,15,09,03,6.40
2017,02,15,09,04,3.20
2017,02,15,09,05,8.10
2017,02,15,09,06,6.40
2017,02,15,09,07,8.10
2017,02,15,09,08,8.10
2017,02,15,09,09,8.10
2017,02,15,09,10,4.80
2017,02,15,09,11,4.80
2017,02,15,09,12,3.20
2017,02,15,09,13,6.40
2017,02,15,09,14,3.20
2017,02,15,09,15,3.20
2017,02,15,09,16,3.20
2017,02,15,09,17,1.60
2017,02,15,09,18,6.40
2017,02,15,09,19,6.40
2017,02,15,09,20,3.20
2017,02,15,09,21,1.60
2017,02,15,09,23,3.20
2017,02,15,09,24,3.20
2017,02,15,09,25,1.60
2017,02,15,09,26,1.60
2017,02,15,09,27,3.20
2017,02,15,09,28,3.20
2017,02,15,09,29,4.80
2017,02,15,09,30,3.20
2017,02,15,09,31,4.80
2017,02,15,09,32,3.20
2017,02,15,09,33,3.20
2017,02,15,09,34,4.80
2017,02,15,09,35,4.80
2017,02,15,09,36,4.80
2017,02,15,09,37,4.80
2017,02,15,09,38,4.80
2017,02,15,09,39,3.20
2017,02,15,09,40,1.60
2017,02,15,09,41,4.80
2017,02,15,09,42,3.20
2017,02,15,09,43,1.60
2017,02,15,09,45,3.20
2017,02,15,09,46,4.80
2017,02,15,09,47,6.40
2017,02,15,09,48,4.80
2017,02,15,09,49,4.80
2017,02,15,09,50,4.80
2017,02,15,09,51,6.40
2017,02,15,09,52,4.80
2017,02,15,09,53,4.80
2017,02,15,09,54,3.20
2017,02,15,09,55,3.20
2017,02,15,09,56,3.20
2017,02,15,10,01,3.20
2017,02,15,10,02,4.80
2017,02,15,10,03,4.80
2017,02,15,10,04,4.80
2017,02,15,10,05,3.20
2017,02,15,10,06,3.20
2017,02,15,10,07,1.60
2017,02,15,10,08,1.60
2017,02,15,10,09,3.20
2017,02,15,10,10,1.60
2017,02,15,10,11,1.60
2017,02,15,10,12,3.20
2017,02,15,10,13,1.60
2017,02,15,10,14,3.20
2017,02,15,10,15,3.20
2017,02,15,10,16,1.60
2017,02,15,10,17,3.20
2017,02,15,10,18,3.20
2017,02,15,10,19,3.20
2017,02,15,10,20,4.80
2017,02,15,10,21,4.80
2017,02,15,10,22,6.40
2017,02,15,10,23,6.40
2017,02,15,10,24,6.40
2017,02,15,10,25,8.10
2017,02,15,10,26,6.40
2017,02,15,10,27,4.80
2017,02,15,10,28,3.20
2017,02,15,10,29,3.20
2017,02,15,10,30,1.60
2017,02,15,10,54,1.60
2017,02,15,10,55,3.20
2017,02,15,10,56,3.20
2017,02,15,10,57,3.20
2017,02,15,10,58,3.20
2017,02,15,10,59,1.60
2017,02,15,11,00,1.60
2017,02,15,11,01,1.60
2017,02,15,11,02,1.60
2017,02,15,11,03,3.20
2017,02,15,11,04,1.60
2017,02,15,11,05,1.60
2017,02,15,11,10,1.60
2017,02,15,11,11,3.20
2017,02,15,11,12,3.20
2017,02,15,11,13,3.20
2017,02,15,11,14,3.20
2017,02,15,11,15,1.60
2017,02,15,11,16,3.20
2017,02,15,11,17,3.20
2017,02,15,11,18,3.20
2017,02,15,11,19,1.60
2017,02,15,11,20,1.60
2017,02,15,11,34,3.20
2017,02,15,11,35,1.60
2017,02,15,11,36,3.20
2017,02,15,11,37,1.60
2017,02,15,11,38,1.60
2017,02,15,11,39,3.20
2017,02,15,11,40,1.60
2017,02,15,11,41,1.60
2017,02,15,11,43,1.60
2017,02,15,12,14,3.20
2017,02,15,12,15,4.80
2017,02,15,12,16,3.20
2017,02,15,12,19,1.60
2017,02,15,12,20,1.60
2017,02,15,12,31,1.60
2017,02,15,12,32,3.20
2017,02,15,12,33,3.20
2017,02,15,12,34,1.60
2017,02,15,12,35,3.20
2017,02,15,12,36,3.20
2017,02,15,12,37,3.20
2017,02,15,12,38,3.20
2017,02,15,12,39,1.60
2017,02,15,12,40,1.60
2017,02,15,12,41,3.20
2017,02,15,12,42,3.20
2017,02,15,12,43,3.20
2017,02,15,13,00,3.20
2017,02,15,13,01,4.80
2017,02,15,13,02,3.20
2017,02,15,13,03,3.20
2017,02,15,13,04,1.60
2017,02,15,13,10,1.60
2017,02,15,13,11,3.20
2017,02,15,13,12,3.20
2017,02,15,13,13,1.60
2017,02,15,13,14,1.60
2017,02,15,13,15,1.60
2017,02,15,13,16,1.60
2017,02,15,13,29,4.80
2017,02,15,13,30,4.80
2017,02,15,13,31,3.20
2017,02,15,13,32,1.60
2017,02,15,13,42,3.20
2017,02,15,13,43,4.80
2017,02,15,13,44,1.60
2017,02,15,13,46,1.60
2017,02,15,13,47,3.20
2017,02,15,13,48,1.60
2017,02,15,13,49,3.20
2017,02,15,13,50,3.20
2017,02,15,13,51,3.20
2017,02,15,13,52,3.20
2017,02,15,13,53,3.20
2017,02,15,13,54,3.20
2017,02,15,13,55,3.20
2017,02,15,13,56,3.20
2017,02,15,13,57,3.20
2017,02,15,13,58,6.40
2017,02,15,13,59,6.40
2017,02,15,14,00,6.40
2017,02,15,14,01,6.40
2017,02,15,14,02,3.20
2017,02,15,14,03,3.20
2017,02,15,14,04,3.20
2017,02,15,14,05,3.20
2017,02,15,14,06,3.20
2017,02,15,14,07,1.60
2017,02,15,14,08,1.60
2017,02,15,14,09,1.60
2017,02,15,14,10,3.20
2017,02,15,14,11,1.60
2017,02,15,14,12,3.20
2017,02,15,14,13,3.20
2017,02,15,14,14,3.20
2017,02,15,14,15,3.20
2017,02,15,14,16,3.20
2017,02,15,14,17,3.20
2017,02,15,14,18,3.20
2017,02,15,14,20,1.60
2017,02,15,14,21,1.60
2017,02,15,14,22,1.60
2017,02,15,14,24,1.60
2017,02,15,14,25,3.20
2017,02,15,14,26,1.60
2017,02,15,14,27,1.60
2017,02,15,14,28,1.60
2017,02,15,14,29,3.20
2017,02,15,14,30,1.60
2017,02,15,14,31,1.60
2017,02,15,14,32,6.40
2017,02,15,14,33,3.20
2017,02,15,14,34,3.20
2017,02,15,14,35,1.60
2017,02,15,14,36,3.20
2017,02,15,14,37,3.20
2017,02,15,14,38,1.60
2017,02,15,14,39,3.20
2017,02,15,14,40,4.80
2017,02,15,14,41,3.20
2017,02,15,14,42,1.60
2017,02,15,15,30,4.80
2017,02,15,15,31,4.80
2017,02,15,15,32,3.20
2017,02,15,15,34,1.60
2017,02,15,15,35,1.60
2017,02,15,15,36,1.60
2017,02,15,15,37,1.60
2017,02,15,15,42,3.20
2017,02,15,15,43,3.20
2017,02,15,15,44,3.20
2017,02,15,15,45,1.60
2017,02,15,15,46,1.60
2017,02,15,15,47,1.60
2017,02,15,15,48,3.20
2017,02,15,15,49,3.20
2017,02,15,15,50,3.20
2017,02,15,15,51,3.20
2017,02,15,15,52,3.20
2017,02,15,15,53,3.20
2017,02,15,15,54,3.20
2017,02,15,15,55,1.60
2017,02,15,15,56,1.60
2017,02,15,15,57,3.20
2017,02,15,15,58,3.20
2017,02,15,15,59,3.20
2017,02,15,16,00,1.60
2017,02,15,16,05,1.60
2017,02,15,16,08,4.80
2017,02,15,16,09,4.80
2017,02,15,16,10,3.20
2017,02,15,16,11,3.20
2017,02,15,16,12,3.20
2017,02,15,16,13,4.80
2017,02,15,16,14,4.80
2017,02,15,16,15,4.80
2017,02,15,16,16,4.80
2017,02,15,16,17,4.80
2017,02,15,16,18,4.80
2017,02,15,16,19,3.20
2017,02,15,16,20,3.20
2017,02,15,16,21,3.20
2017,02,15,16,22,3.20
2017,02,15,16,23,3.20
2017,02,15,16,24,4.80
2017,02,15,16,25,3.20
2017,02,15,16,26,1.60
2017,02,15,16,27,3.20
2017,02,15,16,28,4.80
2017,02,15,16,29,3.20
2017,02,15,16,30,3.20
2017,02,15,16,31,3.20
2017,02,15,16,32,3.20
2017,02,15,16,33,1.60
2017,02,15,16,34,1.60
2017,02,15,16,35,3.20
2017,02,15,16,36,3.20
2017,02,15,16,37,3.20
2017,02,15,16,38,3.20
2017,02,15,16,39,3.20
2017,02,15,16,40,1.60
2017,02,15,16,41,1.60
2017,02,15,16,42,3.20
2017,02,15,16,43,4.80
2017,02,15,16,44,3.20
2017,02,15,16,45,1.60
2017,02,15,16,46,1.60
2017,02,15,16,47,4.80
2017,02,15,16,48,4.80
2017,02,15,16,49,1.60
2017,02,15,16,51,1.60
2017,02,15,16,52,1.60
2017,02,15,16,53,1.60
2017,02,15,16,54,3.20
2017,02,15,16,55,1.60
2017,02,15,16,56,1.60
2017,02,15,16,57,3.20
2017,02,15,16,58,1.60
2017,02,15,16,59,1.60
2017,02,15,17,02,3.20
2017,02,15,17,03,3.20
2017,02,15,17,04,4.80
2017,02,15,17,05,4.80
2017,02,15,17,06,3.20
2017,02,15,17,07,1.60
2017,02,15,17,08,3.20
2017,02,15,17,09,3.20
2017,02,15,17,10,4.80
2017,02,15,17,11,4.80
2017,02,15,17,12,3.20
2017,02,15,17,13,3.20
2017,02,15,17,14,4.80
2017,02,15,17,15,4.80
2017,02,15,17,16,4.80
2017,02,15,17,17,6.40
2017,02,15,17,18,6.40
2017,02,15,17,19,1.60
2017,02,15,17,21,3.20
2017,02,15,17,22,4.80
2017,02,15,17,23,4.80
2017,02,15,17,24,4.80
2017,02,15,17,25,6.40
2017,02,15,17,26,6.40
2017,02,15,17,27,4.80
2017,02,15,17,28,3.20
2017,02,15,17,29,3.20
2017,02,15,17,31,1.60
2017,02,15,17,32,4.80
2017,02,15,17,33,6.40
2017,02,15,17,34,6.40
2017,02,15,17,35,1.60
2017,02,15,17,36,1.60
2017,02,15,17,37,6.40
2017,02,15,17,38,6.40
2017,02,15,17,39,4.80
2017,02,15,17,40,4.80
2017,02,15,17,41,4.80
2017,02,15,17,42,3.20
2017,02,15,17,43,3.20
2017,02,15,17,44,4.80
2017,02,15,17,45,4.80
2017,02,15,17,46,4.80
2017,02,15,17,47,3.20
2017,02,15,17,48,3.20
2017,02,15,17,49,3.20
2017,02,15,17,50,3.20
2017,02,15,18,17,4.80
2017,02,15,18,18,4.80
2017,02,15,18,19,3.20
2017,02,15,18,20,6.40
2017,02,15,18,21,8.10
2017,02,15,18,22,6.40
2017,02,15,18,23,8.10
2017,02,15,18,24,4.80
2017,02,15,18,25,4.80
2017,02,15,18,26,6.40
2017,02,15,18,27,6.40
2017,02,15,18,28,6.40
2017,02,15,18,29,9.60
2017,02,15,18,30,6.40
2017,02,15,18,31,4.80
2017,02,15,18,32,6.40
2017,02,15,18,33,11.30
2017,02,15,18,34,9.60
2017,02,15,18,35,12.90
2017,02,15,18,36,9.60
2017,02,15,18,37,11.30
2017,02,15,18,38,8.10
2017,02,15,18,39,12.90
2017,02,15,18,40,8.10
2017,02,15,18,41,6.40
2017,02,15,18,42,3.20
2017,02,15,18,43,6.40
2017,02,15,18,44,12.90
2017,02,15,18,45,8.10
2017,02,15,18,46,11.30
2017,02,15,18,47,11.30
2017,02,15,18,48,11.30
2017,02,15,18,49,12.90
2017,02,15,18,50,17.70
2017,02,15,18,51,24.20
2017,02,15,18,52,14.50
2017,02,15,18,53,12.90
2017,02,15,18,54,16.10
2017,02,15,18,55,24.20
2017,02,15,18,56,17.70
2017,02,15,18,57,14.50
2017,02,15,18,58,17.70
2017,02,15,18,59,22.50
2017,02,15,19,00,24.20
2017,02,15,19,01,17.70
2017,02,15,19,02,24.20
2017,02,15,19,03,8.10
2017,02,15,19,04,9.60
2017,02,15,19,05,27.40
2017,02,15,19,06,19.30
2017,02,15,19,07,14.50
2017,02,15,19,08,12.90
2017,02,15,19,09,12.90
2017,02,15,19,10,14.50
2017,02,15,19,11,19.30
2017,02,15,19,12,24.20
2017,02,15,19,13,20.90
2017,02,15,19,14,22.50
2017,02,15,19,15,24.20
2017,02,15,19,16,20.90
2017,02,15,19,17,29.00
2017,02,15,19,18,29.00
2017,02,15,19,19,14.50
2017,02,15,19,20,41.80
2017,02,15,19,21,30.60
2017,02,15,19,22,38.60
2017,02,15,19,23,32.20
2017,02,15,19,24,40.20
2017,02,15,19,25,35.40
2017,02,15,19,26,30.60
2017,02,15,19,27,24.20
2017,02,15,19,28,38.60
2017,02,15,19,29,29.00
2017,02,15,19,30,19.30
2017,02,15,19,31,22.50
2017,02,15,19,32,14.50
2017,02,15,19,33,14.50
2017,02,15,19,34,17.70
2017,02,15,19,35,12.90
2017,02,15,19,36,20.90
2017,02,15,19,37,12.90
2017,02,15,19,38,24.20
2017,02,15,19,39,19.30
2017,02,15,19,40,19.30
2017,02,15,19,41,20.90
2017,02,15,19,42,35.40
2017,02,15,19,43,24.20
2017,02,15,19,44,24.20
2017,02,15,19,45,17.70
2017,02,15,19,46,22.50
2017,02,15,19,47,19.30
2017,02,15,19,48,14.50
2017,02,15,19,49,20.90
2017,02,15,19,50,30.60
2017,02,15,19,51,29.00
2017,02,15,19,52,20.90
2017,02,15,19,53,35.40
2017,02,15,19,54,40.20
2017,02,15,19,55,29.00
2017,02,15,19,56,29.00
2017,02,15,19,57,19.30
2017,02,15,19,58,19.30
2017,02,15,19,59,30.60
2017,02,15,20,00,25.70
2017,02,15,20,01,22.50
2017,02,15,20,02,25.70
2017,02,15,20,03,48.30
2017,02,15,20,04,32.20
2017,02,15,20,05,32.20
2017,02,15,20,06,38.60
2017,02,15,20,07,38.60
2017,02,15,20,08,46.70
2017,02,15,20,09,35.40
2017,02,15,20,10,20.90
2017,02,15,20,11,20.90
2017,02,15,20,12,19.30
2017,02,15,20,13,30.60
2017,02,15,20,14,32.20
2017,02,15,20,15,25.70
2017,02,15,20,16,22.50
2017,02,15,20,17,35.40
2017,02,15,20,18,43.50
2017,02,15,20,19,40.20
2017,02,15,20,20,33.80
2017,02,15,20,21,14.50
2017,02,15,20,22,16.10
2017,02,15,20,23,35.40
2017,02,15,20,24,40.20
2017,02,15,20,25,29.00
2017,02,15,20,26,35.40
2017,02,15,20,27,32.20
2017,02,15,20,28,20.90
2017,02,15,20,29,29.00
2017,02,15,20,30,45.10
2017,02,15,20,31,25.70
2017,02,15,20,32,48.30
2017,02,15,20,33,48.30
2017,02,15,20,34,62.70
2017,02,15,20,35,49.90
2017,02,15,20,36,45.10
2017,02,15,20,37,35.40
2017,02,15,20,38,40.20
2017,02,15,20,39,43.50
2017,02,15,20,40,25.70
2017,02,15,20,41,43.50
2017,02,15,20,42,54.70
2017,02,15,20,43,32.20
2017,02,15,20,44,62.70
2017,02,15,20,45,30.60
2017,02,15,20,46,59.50
2017,02,15,20,47,45.10
2017,02,15,20,48,40.20
2017,02,15,20,49,41.80
2017,02,15,20,50,43.50
2017,02,15,20,51,38.60
2017,02,15,20,52,41.80
2017,02,15,20,53,22.50
2017,02,15,20,54,45.10
2017,02,15,20,55,53.10
2017,02,15,20,56,53.10
2017,02,15,20,57,56.30
2017,02,15,20,58,45.10
2017,02,15,20,59,38.60
2017,02,15,21,00,43.50
2017,02,15,21,01,56.30
2017,02,15,21,02,51.50
2017,02,15,21,03,35.40
2017,02,15,21,04,32.20
2017,02,15,21,05,49.90
2017,02,15,21,06,43.50
2017,02,15,21,07,35.40
2017,02,15,21,08,48.30
2017,02,15,21,09,30.60
2017,02,15,21,10,51.50
2017,02,15,21,11,32.20
2017,02,15,21,12,38.60
2017,02,15,21,13,40.20
2017,02,15,21,14,37.00
2017,02,15,21,15,37.00
2017,02,15,21,16,33.80
2017,02,15,21,17,48.30
2017,02,15,21,18,35.40
2017,02,15,21,19,25.70
2017,02,15,21,20,27.40
2017,02,15,21,21,30.60
2017,02,15,21,22,25.70
2017,02,15,21,23,20.90
2017,02,15,21,24,27.40
2017,02,15,21,25,25.70
2017,02,15,21,26,33.80
2017,02,15,21,27,30.60
2017,02,15,21,28,37.00
2017,02,15,21,29,41.80
2017,02,15,21,30,32.20
2017,02,15,21,31,27.40
2017,02,15,21,32,20.90
2017,02,15,21,33,19.30
2017,02,15,21,34,22.50
2017,02,15,21,35,20.90
2017,02,15,21,36,22.50
2017,02,15,21,37,24.20
2017,02,15,21,38,17.70
2017,02,15,21,39,19.30
2017,02,15,21,40,30.60
2017,02,15,21,41,29.00
2017,02,15,21,42,38.60
2017,02,15,21,43,43.50
2017,02,15,21,44,38.60
2017,02,15,21,45,38.60
2017,02,15,21,46,33.80
2017,02,15,21,47,35.40
2017,02,15,21,48,33.80
2017,02,15,21,49,20.90
2017,02,15,21,50,20.90
2017,02,15,21,51,20.90
2017,02,15,21,52,17.70
2017,02,15,21,53,24.20
2017,02,15,21,54,19.30
2017,02,15,21,55,24.20
2017,02,15,21,56,20.90
2017,02,15,21,57,25.70
2017,02,15,21,58,14.50
2017,02,15,21,59,29.00
2017,02,15,22,00,29.00
2017,02,15,22,01,35.40
2017,02,15,22,02,32.20
2017,02,15,22,03,29.00
2017,02,15,22,04,37.00
2017,02,15,22,05,38.60
2017,02,15,22,06,38.60
2017,02,15,22,07,22.50
2017,02,15,22,08,56.30
2017,02,15,22,09,35.40
2017,02,15,22,10,27.40
2017,02,15,22,11,9.60
2017,02,15,22,12,29.00
2017,02,15,22,13,17.70
2017,02,15,22,14,16.10
2017,02,15,22,15,19.30
2017,02,15,22,16,12.90
2017,02,15,22,17,9.60
2017,02,15,22,18,24.20
2017,02,15,22,19,17.70
2017,02,15,22,20,16.10
2017,02,15,22,21,14.50
2017,02,15,22,22,24.20
2017,02,15,22,23,12.90
2017,02,15,22,24,27.40
2017,02,15,22,25,32.20
2017,02,15,22,26,17.70
2017,02,15,22,27,40.20
2017,02,15,22,28,29.00
2017,02,15,22,29,29.00
2017,02,15,22,30,19.30
2017,02,15,22,31,19.30
2017,02,15,22,32,22.50
2017,02,15,22,33,19.30
2017,02,15,22,34,17.70
2017,02,15,22,35,22.50
2017,02,15,22,36,25.70
2017,02,15,22,37,30.60
2017,02,15,22,38,20.90
2017,02,15,22,39,20.90
2017,02,15,22,40,27.40
2017,02,15,22,41,16.10
2017,02,15,22,42,24.20
2017,02,15,22,43,16.10
2017,02,15,22,44,27.40
2017,02,15,22,45,43.50
2017,02,15,22,46,25.70
2017,02,15,22,47,22.50
2017,02,15,22,48,24.20
2017,02,15,22,49,30.60
2017,02,15,22,50,16.10
2017,02,15,22,51,17.70
2017,02,15,22,52,20.90
2017,02,15,22,53,19.30
2017,02,15,22,54,20.90
2017,02,15,22,55,16.10
2017,02,15,22,56,29.00
2017,02,15,22,57,17.70
2017,02,15,22,58,24.20
2017,02,15,22,59,24.20
2017,02,15,23,00,19.30
2017,02,15,23,01,32.20
2017,02,15,23,02,30.60
2017,02,15,23,03,22.50
2017,02,15,23,04,20.90
2017,02,15,23,05,29.00
2017,02,15,23,06,37.00
2017,02,15,23,07,22.50
2017,02,15,23,08,20.90
2017,02,15,23,09,24.20
2017,02,15,23,10,19.30
2017,02,15,23,11,29.00
2017,02,15,23,12,32.20
2017,02,15,23,13,22.50
2017,02,15,23,14,20.90
2017,02,15,23,15,29.00
2017,02,15,23,16,27.40
2017,02,15,23,17,22.50
2017,02,15,23,18,20.90
2017,02,15,23,19,25.70
2017,02,15,23,20,20.90
2017,02,15,23,21,27.40
2017,02,15,23,22,33.80
2017,02,15,23,23,38.60
2017,02,15,23,24,22.50
2017,02,15,23,25,25.70
2017,02,15,23,26,40.20
2017,02,15,23,27,41.80
2017,02,15,23,28,20.90
2017,02,15,23,29,14.50
2017,02,15,23,30,12.90